Location: Passau
(48.5830°N, 13.4830°E)
Time: 21:25:41
(UTC+01:00)

STRAND 1 - Visible Passes

Search period start: 05 December 2021 00:00
Search period end: 15 December 2021 00:00
Orbit: 767 x 781 km, 98.4° (Epoch: 04 December)

Date Brightness Start Highest point End Pass type
(mag) Time Alt. Az. Time Alt. Az. Time Alt. Az.
05 Dec ? 04:41:04 10° E 04:44:14 17° NE 04:47:26 10° NNE visible
05 Dec ? 06:17:38 10° SSE 06:22:46 86° WSW 06:27:55 10° NNW visible
06 Dec ? 05:43:48 10° SE 05:48:44 51° ENE 05:53:41 10° N visible
07 Dec ? 05:10:35 10° ESE 05:14:52 28° ENE 05:19:10 10° N visible
07 Dec ? 06:48:54 10° S 06:53:50 47° W 06:58:47 10° NNW visible
08 Dec ? 04:38:08 10° E 04:41:10 16° NE 04:44:12 10° NNE visible
08 Dec ? 06:14:31 10° SSE 06:19:38 90° SE 06:24:48 10° NNW visible
09 Dec ? 05:40:44 10° SE 05:45:37 48° ENE 05:50:32 10° N visible
10 Dec ? 05:07:33 10° ESE 05:11:46 26° ENE 05:15:58 10° N visible
10 Dec ? 06:45:44 10° S 06:50:42 50° W 06:55:40 10° NNW visible
11 Dec ? 04:35:13 10° E 04:38:05 15° NE 04:40:56 10° NNE visible
11 Dec ? 06:11:23 10° SSE 06:16:31 85° ENE 06:21:39 10° NNW visible
12 Dec ? 05:37:40 10° SE 05:42:30 45° ENE 05:47:21 10° N visible
13 Dec ? 05:04:33 10° ESE 05:08:40 25° ENE 05:12:47 10° N visible
13 Dec ? 06:42:33 10° S 06:47:33 53° W 06:52:33 10° NNW visible
14 Dec ? 04:32:18 10° E 04:34:59 14° NE 04:37:39 10° NNE visible
14 Dec ? 06:08:16 10° SSE 06:13:23 81° ENE 06:18:31 10° NNW visible
